FW6259 Weather Reports


Display with metric or nautical units.
time (UTC)temp
F
wind
direction
speed
MPH
gust
MPH
rain 1hr
in
rain 24hr
in
rain mn
in
humidity
%
barometer
mb
20260506090059 39 169 4.0 11.0 0.00 0.04 0.00 80 1011.9
20260506084601 39 243 2.0 10.0 0.00 0.04 0.00 81 1011.8
20260506083108 39 229 1.0 9.0 0.00 0.04 0.00 83 1011.5
20260506081502 39 154 7.0 13.0 0.00 0.04 0.00 83 1011.5
20260506073100 39 174 5.0 14.0 0.00 0.05 0.04 83 1011.4
20260506071557 39 194 5.0 15.0 0.00 0.05 0.04 81 1011.4
20260506061548 38 160 5.0 11.0 0.00 0.07 0.04 83 1011.2
20260506050105 40 195 1.0 6.0 0.00 0.09 0.04 83 1010.5
20260506044553 40 146 0.0 6.0 0.00 0.10 0.04 82 1010.3
20260506043044 41 137 1.0 6.0 0.00 0.10 0.04 81 1010.2
20260506041616 41 159 1.0 5.0 0.00 0.10 0.04 79 1010.3
20260506040050 41 205 2.0 8.0 0.00 0.10 0.04 78 1010.2
20260506034554 41 200 1.0 7.0 0.00 0.17 0.04 78 1010.1
20260506033040 42 248 4.0 10.0 0.00 0.17 0.04 77 1010.1
20260506031600 42 223 2.0 8.0 0.00 0.17 0.04 77 1010.1
20260506030049 42 221 3.0 10.0 0.00 0.17 0.04 76 1010.0
20260506024505 43 203 3.0 8.0 0.00 0.23 0.04 74 1009.8
20260506023055 43 262 2.0 10.0 0.00 0.23 0.04 73 1009.8
20260506021549 43 204 5.0 11.0 0.00 0.23 0.04 72 1009.8
20260506020109 43 224 5.0 13.0 0.00 0.23 0.04 73 1009.6
20260506014608 42 248 7.0 14.0 0.00 0.25 0.04 74 1009.6
20260506013104 42 236 8.0 16.0 0.00 0.25 0.04 75 1009.7
20260506011617 42 236 10.0 18.0 0.00 0.25 0.04 75 1009.6
20260506010048 43 217 7.0 15.0 0.00 0.25 0.04 75 1009.6
20260506004606 44 242 5.0 18.0 0.00 0.25 0.04 73 1009.4
20260506003052 45 247 8.0 15.0 0.00 0.25 0.04 69 1009.4
20260506001547 46 200 5.0 18.0 0.00 0.25 0.04 66 1009.3
20260506000119 46 250 8.0 18.0 0.00 0.25 0.04 64 1009.1
20260505234554 46 225 4.0 17.0 0.00 0.27 0.04 64 1008.9
20260505233055 47 238 8.0 14.0 0.00 0.27 0.04 62 1008.9
20260505231506 46 213 7.0 13.0 0.00 0.27 0.04 61 1009.0
20260505224505 47 256 8.0 20.0 0.00 0.27 0.04 64 1008.9
20260505223050 49 162 8.0 19.0 0.00 0.27 0.04 59 1008.8
20260505221602 48 194 9.0 17.0 0.00 0.27 0.04 58 1008.6
20260505220155 47 179 9.0 18.0 0.00 0.27 0.04 57 1008.4
20260505214547 48 44 5.0 16.0 0.00 0.27 0.04 58 1008.2
20260505213100 47 207 9.0 16.0 0.00 0.27 0.04 57 1007.7
20260505211554 47 241 6.0 17.0 0.00 0.27 0.04 61 1007.6
20260505210059 47 188 6.0 14.0 0.00 0.27 0.04 60 1007.4
20260505204602 47 232 4.0 15.0 0.00 0.28 0.04 60 1007.6
20260505203056 48 254 9.0 18.0 0.00 0.28 0.04 58 1007.3
20260505201503 48 243 8.0 19.0 0.00 0.28 0.04 57 1007.1
20260505200055 48 199 7.0 17.0 0.00 0.28 0.04 57 1006.9
20260505194605 49 258 9.0 18.0 0.00 0.28 0.04 57 1006.9
20260505193107 49 190 7.0 18.0 0.00 0.28 0.04 56 1006.8
20260505191608 50 201 7.0 19.0 0.00 0.28 0.04 56 1006.6
20260505190051 50 240 10.0 20.0 0.00 0.28 0.04 54 1006.7
20260505184547 49 236 10.0 24.0 0.00 0.28 0.04 57 1006.6
20260505183100 49 196 10.0 18.0 0.00 0.28 0.04 59 1006.2
20260505181555 49 182 7.0 16.0 0.00 0.28 0.04 65 1006.2
20260505180054 47 177 10.0 19.0 0.00 0.28 0.04 66 1006.2
20260505174501 46 213 6.0 19.0 0.00 0.28 0.04 72 1006.6
20260505173108 45 195 4.0 16.0 0.00 0.28 0.04 77 1006.6
20260505171628 44 237 6.0 13.0 0.00 0.28 0.04 78 1006.7
20260505170054 44 230 2.0 9.0 0.00 0.28 0.04 83 1006.6
20260505164548 43 159 3.0 11.0 0.00 0.28 0.04 85 1006.6
20260505163002 44 134 7.0 12.0 0.00 0.28 0.04 85 1006.5
20260505161527 43 166 6.0 14.0 0.00 0.28 0.04 85 1006.5
20260505153052 40 184 2.0 6.0 0.01 0.28 0.04 93 1006.5
20260505151545 40 235 1.0 8.0 0.01 0.28 0.04 93 1006.1
20260505150127 39 212 2.0 5.0 0.00 0.27 0.03 96 1006.3
20260505124607 39 6 0.0 2.0 0.02 0.26 0.02 97 1006.4
20260505123059 39 109 0.0 3.0 0.00 0.24 0.00 97 1006.4
20260505121620 40 244 0.0 2.0 0.00 0.24 0.00 96 1006.4
20260505120040 39 101 0.0 1.0 0.00 0.24 0.00 98 1006.3
20260505114557 39 245 1.0 3.0 0.00 0.24 0.00 98 1006.6
20260505113056 38 41 0.0 4.0 0.00 0.24 0.00 98 1006.5
20260505111550 38 227 0.0 1.0 0.00 0.24 0.00 98 1006.6
20260505101503 39 136 0.0 2.0 0.00 0.24 0.00 97 1007.0
20260505100136 40 186 0.0 2.0 0.00 0.24 0.00 97 1007.0
20260505094550 40 229 0.0 3.0 0.00 0.24 0.00 96 1007.4
20260505093100 40 184 0.0 3.0 0.00 0.24 0.00 97 1007.7
20260505091618 40 144 0.0 2.0 0.00 0.24 0.00 97 1007.8